Temp
21 20 22 23 25 27 27 30 32 30 30 29 28 28 26 26 24 21 20 19 18 19 17 19 19 18 18 19 19 19 18 19 19 19 19 19 19 19 19 19 18 18 18 18 19 18 18 18 18
22 21 23 25 25 25 27 31 30 30 29 28 28 28 28 26 24 21 19 18 19 18 18 17 18 19 19 19 19 19 19 19 19 18 18 19 19 19 19 19 18 19 19 19 19 19 18 18 18
21 22 25 28 22 21 28 30 30 29 28 29 28 26 27 24 23 21 20 18 18 18 18 18 18 18 18 18 19 19 19 19 19 18 19 18 18 18 19 19 19 19 19 19 18 18 18 18 17
23 24 26 26 28 29 28 30 30 29 28 28 27 27 23 22 22 20 20 18 18 18 17 19 18 18 18 18 18 18 18 18 19 18 18 18 18 18 19 19 19 19 19 18 18 18 18 18 18
24 26 27 27 27 28 29 29 29 28 29 28 27 27 23 20 19 19 19 18 19 19 18 18 18 18 18 18 18 18 18 18 18 17 18 18 18 18 19 19 19 19 19 18 18 18 18 19 19
26 27 26 25 27 28 29 28 29 28 29 27 27 27 23 19 19 20 21 20 21 20 19 17 18 18 18 18 18 18 17 18 17 17 18 17 18 18 19 19 19 19 19 18 18 19 19 19 19
27 26 26 25 26 25 27 27 28 28 29 28 27 28 21 19 20 20 21 20 19 19 18 17 17 18 18 18 18 18 18 17 17 17 18 18 18 18 18 19 19 19 19 18 19 19 19 19 19
25 25 27 26 24 23 24 26 26 25 27 27 26 26 23 20 20 20 20 20 19 20 18 18 17 18 17 18 18 17 18 17 18 18 18 18 18 18 19 19 19 19 19 19 19 19 19 19 19
26 20 26 27 26 23 24 26 25 25 27 27 26 27 24 21 20 20 20 19 19 18 19 18 19 18 17 16 18 17 18 17 17 17 17 18 17 18 18 18 19 19 19 19 19 20 20 20 20
29 24 27 28 27 26 26 25 23 26 28 27 26 25 23 22 21 21 20 20 20 19 19 18 18 18 17 17 18 18 18 17 17 18 18 19 19 19 19 19 20 20 19 19 20 20 20 21 21
29 28 29 28 27 27 26 26 26 27 27 27 26 24 23 23 23 22 22 21 21 20 19 18 17 17 18 18 17 17 18 18 17 18 18 19 19 19 19 19 19 19 20 19 20 20 21 20 21
28 28 28 27 26 26 26 26 25 25 24 27 26 24 24 24 22 21 21 21 20 20 19 18 18 18 18 18 18 18 18 18 18 18 18 18 19 19 20 20 20 20 20 20 20 21 20 21 21
29 29 27 27 26 26 25 24 24 26 26 26 26 25 24 25 23 23 21 20 20 19 19 18 17 17 17 17 18 18 19 18 17 18 17 18 19 20 20 20 20 21 20 20 21 21 21 21 22
29 28 28 27 27 27 26 26 26 25 24 26 26 25 25 25 25 24 23 22 21 20 18 18 18 17 17 17 17 17 18 18 18 18 18 18 19 19 19 19 20 20 20 21 21 21 22 22 22
29 29 29 29 28 28 26 27 26 23 24 25 26 26 26 25 25 24 23 22 22 21 20 18 17 17 17 17 16 17 17 17 18 17 18 18 19 18 19 20 21 21 20 20 21 21 22 23 23
29 30 29 29 28 28 27 24 27 25 25 25 25 26 26 25 25 24 23 23 22 21 20 19 19 17 16 17 17 17 17 18 18 18 17 17 18 18 19 20 21 20 20 21 22 22 22 23 23
31 30 30 30 28 29 28 26 28 25 25 26 25 26 26 25 25 24 23 23 22 21 19 19 18 17 17 16 17 17 17 17 18 18 17 19 19 17 19 21 21 20 21 22 22 22 22 23 24
30 30 30 30 30 28 28 28 29 27 26 27 25 25 25 26 25 24 24 23 22 20 19 19 18 17 17 17 17 16 17 18 18 18 17 19 19 18 19 20 20 19 21 22 22 22 22 22 23
31 30 30 31 30 29 29 29 29 29 27 27 26 24 25 26 25 25 24 24 23 21 19 18 18 17 17 16 17 17 17 18 18 18 18 18 19 18 19 20 19 20 20 20 20 21 21 23 22
30 30 30 31 30 29 29 30 31 31 29 28 27 27 26 26 26 25 24 24 23 22 20 18 18 17 17 18 18 18 18 19 19 18 18 17 17 17 18 19 20 20 21 20 19 20 22 23 23
30 30 31 30 31 31 30 30 30 31 30 29 28 27 27 25 25 26 25 25 24 22 20 19 18 17 17 18 18 18 18 18 18 18 19 18 17 18 19 18 19 19 20 21 21 20 20 22 20
30 32 31 30 30 29 30 29 25 31 31 30 29 28 28 26 26 27 26 25 25 23 21 19 18 17 17 17 18 18 19 19 20 19 20 19 18 18 18 19 20 20 19 20 20 20 20 20 22
30 32 31 30 30 31 32 31 32 32 31 31 31 29 28 28 27 27 26 26 25 24 22 20 18 17 17 17 18 18 18 20 20 20 20 19 19 18 18 20 20 20 20 19 19 20 20 20 20
32 31 30 31 31 30 32 32 32 32 32 33 33 32 30 28 28 27 27 26 25 24 22 21 18 18 18 18 18 17 18 20 21 20 20 20 20 18 18 18 20 20 20 20 19 19 19 20 20
31 30 29 29 30 30 33 31 32 33 34 34 33 32 31 29 28 27 27 26 25 24 22 21 19 18 18 18 18 18 17 19 19 20 20 20 21 21 19 18 18 19 20 19 19 19 19 18 19
30 31 31 29 30 32 32 30 32 34 34 33 33 32 31 30 29 28 27 26 25 24 23 22 20 18 19 19 19 20 19 18 18 19 19 20 20 20 21 20 18 18 19 19 18 18 18 19 19
31 30 32 31 32 31 32 33 34 34 34 34 33 32 31 30 29 28 27 26 26 24 23 22 21 19 19 19 20 21 20 19 19 19 19 20 20 20 18 20 19 18 18 18 18 19 19 19 19
32 33 31 31 28 28 31 31 32 32 33 33 34 32 31 30 29 28 27 26 25 24 23 22 21 20 20 19 20 20 18 19 20 19 19 20 20 20 19 18 19 19 19 19 18 19 19 19 19
31 30 31 32 31 29 30 31 33 33 33 32 33 32 31 29 29 29 27 26 25 24 24 23 21 20 19 19 19 21 19 19 19 18 18 19 19 19 19 19 19 19 19 19 18 19 19 18 18
33 32 32 30 29 31 31 31 34 34 34 33 32 31 30 29 28 28 27 25 24 23 23 22 21 21 20 20 21 20 21 19 20 19 18 18 19 18 18 18 19 19 18 18 18 18 18 18 18
Height
1513 1514 1517 1516 1512 1496 1501 1490 1482 1491 1493 1496 1501 1501 1509 1512 1517 1531 1532 1536 1538 1544 1545 1545 1547 1549 1550 1552 1554 1555 1556 1557 1558 1559 1559 1560 1561 1562 1562 1563 1564 1565 1566 1566 1567 1568 1568 1569 1570
1519 1518 1516 1510 1509 1513 1502 1486 1489 1490 1497 1501 1505 1505 1506 1514 1521 1527 1533 1536 1537 1542 1548 1548 1548 1550 1552 1553 1555 1557 1557 1559 1561 1561 1562 1563 1563 1564 1564 1565 1566 1566 1567 1569 1569 1570 1571 1571 1572
1517 1518 1513 1500 1514 1528 1501 1489 1494 1499 1502 1502 1505 1510 1510 1521 1527 1529 1533 1537 1539 1539 1546 1549 1550 1551 1553 1554 1557 1558 1559 1561 1563 1564 1565 1565 1565 1566 1566 1567 1568 1569 1570 1571 1572 1573 1573 1574 1574
1519 1516 1512 1508 1499 1491 1494 1493 1497 1499 1504 1507 1508 1509 1522 1526 1529 1532 1535 1538 1539 1544 1546 1549 1550 1552 1553 1555 1557 1559 1561 1562 1564 1565 1567 1566 1567 1567 1568 1569 1571 1572 1572 1573 1574 1574 1575 1575 1575
1518 1512 1506 1503 1501 1499 1497 1499 1500 1502 1503 1507 1510 1510 1522 1529 1530 1533 1536 1540 1544 1548 1548 1549 1552 1553 1554 1555 1558 1559 1561 1563 1565 1566 1568 1568 1569 1570 1570 1571 1573 1573 1574 1575 1576 1576 1577 1576 1576
1513 1509 1512 1513 1504 1500 1499 1503 1502 1503 1505 1511 1510 1512 1525 1530 1532 1535 1539 1542 1546 1548 1551 1551 1552 1553 1555 1557 1559 1560 1561 1563 1564 1565 1566 1568 1570 1572 1572 1573 1574 1575 1576 1577 1578 1578 1578 1578 1578
1511 1511 1512 1512 1508 1509 1504 1508 1505 1506 1502 1508 1513 1509 1528 1532 1534 1537 1540 1543 1543 1547 1550 1552 1553 1554 1556 1559 1560 1561 1564 1564 1565 1566 1568 1569 1572 1573 1574 1575 1576 1577 1578 1579 1580 1580 1580 1579 1580
1515 1512 1507 1511 1520 1522 1516 1512 1511 1513 1509 1512 1513 1512 1525 1532 1536 1538 1541 1544 1547 1549 1550 1554 1555 1556 1558 1559 1561 1562 1564 1565 1566 1569 1569 1571 1574 1575 1576 1578 1578 1579 1580 1581 1582 1582 1582 1581 1581
1514 1522 1512 1508 1512 1519 1516 1512 1516 1514 1511 1512 1515 1513 1520 1530 1536 1539 1542 1545 1548 1548 1551 1554 1557 1557 1560 1560 1561 1563 1565 1566 1568 1571 1572 1574 1577 1578 1579 1579 1580 1581 1582 1583 1584 1584 1584 1583 1583
1505 1513 1509 1504 1506 1509 1513 1515 1518 1515 1510 1513 1518 1521 1526 1531 1535 1539 1542 1545 1546 1550 1553 1554 1555 1559 1560 1562 1562 1564 1565 1568 1568 1573 1574 1577 1580 1581 1583 1581 1582 1583 1584 1585 1586 1586 1586 1585 1586
1504 1506 1503 1507 1508 1509 1512 1512 1514 1513 1512 1511 1519 1524 1528 1532 1535 1539 1541 1544 1546 1549 1550 1554 1555 1558 1559 1562 1563 1566 1568 1568 1570 1574 1574 1577 1580 1583 1584 1583 1584 1586 1586 1587 1588 1587 1587 1589 1588
1505 1508 1508 1511 1513 1511 1512 1513 1515 1516 1518 1514 1519 1524 1527 1530 1534 1539 1542 1544 1546 1547 1550 1553 1556 1558 1560 1562 1563 1567 1570 1572 1572 1573 1576 1579 1582 1583 1586 1587 1588 1588 1590 1589 1589 1591 1590 1591 1588
1503 1507 1511 1512 1512 1513 1516 1516 1517 1515 1517 1517 1520 1524 1527 1529 1533 1535 1537 1541 1544 1547 1549 1552 1554 1557 1559 1561 1564 1565 1569 1570 1572 1574 1577 1580 1582 1584 1585 1586 1588 1589 1590 1591 1591 1591 1592 1591 1591
1505 1508 1508 1510 1510 1511 1513 1514 1513 1516 1519 1518 1521 1523 1526 1528 1531 1535 1538 1541 1543 1545 1548 1551 1553 1556 1557 1560 1563 1564 1569 1569 1573 1575 1578 1578 1582 1583 1585 1586 1589 1590 1590 1591 1592 1592 1592 1590 1592
1505 1504 1504 1504 1507 1506 1511 1509 1512 1519 1520 1520 1520 1521 1524 1527 1530 1535 1538 1541 1544 1547 1549 1549 1551 1554 1555 1559 1561 1564 1568 1569 1571 1569 1574 1578 1580 1583 1586 1588 1589 1590 1590 1590 1591 1591 1591 1590 1592
1504 1499 1501 1500 1506 1505 1510 1516 1506 1513 1517 1518 1519 1520 1523 1526 1529 1534 1538 1540 1543 1546 1549 1550 1552 1552 1554 1557 1559 1562 1564 1567 1570 1571 1576 1578 1580 1583 1584 1588 1590 1590 1591 1592 1591 1584 1574 1588 1591
1492 1497 1497 1497 1503 1503 1505 1510 1503 1511 1513 1513 1516 1519 1522 1525 1528 1532 1535 1539 1542 1545 1547 1549 1551 1551 1554 1556 1558 1562 1565 1568 1570 1573 1576 1578 1580 1583 1584 1589 1590 1590 1593 1592 1588 1581 1577 1587 1588
1499 1496 1494 1497 1497 1501 1500 1497 1496 1504 1507 1506 1513 1518 1519 1521 1525 1529 1533 1537 1540 1544 1546 1547 1549 1549 1551 1554 1558 1562 1565 1568 1571 1573 1576 1578 1579 1582 1584 1588 1589 1590 1593 1593 1590 1586 1589 1587 1584
1487 1496 1497 1489 1493 1498 1494 1492 1490 1493 1501 1503 1506 1513 1514 1516 1520 1525 1531 1534 1538 1542 1544 1545 1547 1550 1550 1554 1558 1563 1565 1568 1570 1573 1575 1577 1579 1582 1584 1588 1588 1590 1592 1592 1592 1594 1594 1593 1593
1493 1496 1493 1484 1490 1495 1491 1489 1482 1485 1490 1496 1501 1502 1507 1510 1515 1521 1526 1529 1534 1539 1542 1544 1546 1548 1552 1555 1559 1562 1566 1569 1570 1573 1575 1577 1579 1581 1583 1586 1588 1590 1592 1592 1594 1594 1592 1593 1593
1492 1492 1488 1491 1485 1481 1485 1482 1478 1476 1481 1488 1494 1498 1502 1508 1510 1514 1521 1525 1530 1535 1539 1541 1544 1546 1550 1555 1558 1561 1565 1568 1570 1572 1574 1576 1578 1579 1581 1584 1586 1589 1590 1592 1592 1594 1594 1591 1585
1491 1478 1482 1492 1493 1495 1479 1496 1487 1468 1474 1480 1486 1490 1494 1500 1504 1506 1512 1520 1524 1530 1536 1539 1541 1544 1547 1552 1556 1559 1562 1565 1567 1570 1572 1575 1576 1578 1579 1581 1583 1585 1589 1591 1592 1593 1593 1593 1592
1488 1477 1485 1487 1488 1481 1470 1480 1464 1465 1471 1469 1473 1480 1486 1490 1496 1501 1507 1514 1519 1525 1531 1535 1537 1541 1545 1548 1553 1557 1560 1563 1565 1568 1570 1572 1573 1575 1577 1578 1580 1583 1585 1588 1589 1591 1591 1593 1594
1481 1482 1484 1483 1480 1489 1463 1464 1462 1457 1461 1459 1463 1465 1474 1482 1487 1495 1502 1508 1515 1520 1526 1531 1534 1536 1540 1544 1548 1553 1556 1560 1563 1565 1567 1569 1572 1572 1573 1575 1577 1580 1582 1584 1586 1588 1590 1590 1591
1478 1486 1497 1497 1486 1480 1451 1470 1464 1451 1450 1454 1459 1461 1466 1473 1481 1488 1495 1502 1510 1515 1521 1526 1529 1533 1536 1540 1544 1548 1553 1556 1559 1562 1565 1567 1568 1570 1571 1573 1575 1577 1578 1580 1583 1585 1586 1588 1588
1477 1476 1482 1497 1482 1467 1455 1475 1459 1446 1448 1452 1453 1459 1462 1468 1475 1482 1490 1498 1504 1511 1517 1521 1525 1529 1532 1536 1540 1544 1548 1553 1556 1559 1561 1563 1564 1563 1567 1569 1572 1574 1575 1577 1580 1582 1584 1586 1586
1468 1479 1463 1471 1462 1473 1457 1448 1440 1439 1446 1446 1447 1454 1460 1464 1469 1477 1484 1492 1500 1507 1513 1517 1520 1525 1528 1533 1537 1539 1543 1547 1552 1555 1558 1560 1561 1561 1559 1562 1566 1571 1573 1575 1576 1579 1581 1582 1583
1464 1455 1473 1469 1497 1496 1464 1458 1454 1447 1447 1445 1445 1450 1458 1462 1466 1472 1480 1487 1495 1503 1509 1515 1519 1522 1526 1530 1532 1536 1539 1542 1546 1551 1553 1556 1558 1559 1552 1548 1561 1566 1570 1572 1572 1575 1577 1577 1579
1463 1468 1464 1459 1464 1481 1479 1457 1433 1442 1446 1449 1446 1449 1453 1461 1464 1468 1477 1485 1493 1499 1505 1510 1514 1520 1523 1526 1529 1532 1535 1540 1541 1545 1547 1550 1553 1555 1555 1554 1556 1562 1565 1567 1568 1570 1573 1573 1575
1447 1452 1456 1470 1477 1462 1462 1461 1429 1436 1441 1446 1448 1451 1454 1458 1463 1467 1474 1483 1490 1495 1500 1505 1510 1514 1519 1522 1524 1526 1530 1534 1537 1539 1542 1544 1546 1549 1551 1552 1554 1557 1559 1562 1562 1564 1568 1569 1570
Wind_Speed
5 8 4 6 6 3 4 5 11 7 12 12 9 13 9 15 8 7 21 17 23 16 14 17 15 15 14 13 11 10 11 11 12 11 11 11 12 12 10 10 11 11 12 13 14 14 15 14 14
1 4 4 8 5 3 6 3 10 11 10 13 9 3 12 15 12 19 22 23 23 20 13 13 15 14 13 11 11 10 10 10 11 10 10 10 10 11 11 12 12 13 13 15 16 17 16 15 14
1 6 11 5 3 5 8 8 10 10 7 3 4 7 6 7 10 16 22 22 21 22 21 14 13 12 11 10 8 8 9 8 10 9 8 9 9 9 10 11 12 13 15 17 16 14 13 11 10
5 5 8 7 8 7 2 10 10 10 7 5 3 11 9 5 8 14 25 23 24 16 17 15 13 10 9 7 6 7 7 7 8 8 8 8 8 8 10 10 12 14 16 15 15 13 12 10 12
4 6 8 8 4 3 4 4 8 1 6 8 6 11 8 6 9 20 24 21 19 17 16 15 12 10 7 7 7 7 6 6 6 8 8 7 7 8 10 10 12 14 14 15 13 13 11 12 13
9 3 7 4 1 4 9 4 3 1 7 5 6 8 10 10 15 21 20 18 16 16 17 11 13 11 9 8 8 8 8 7 6 12 13 8 7 9 10 10 11 13 14 13 12 13 12 12 11
9 2 4 6 7 5 7 3 1 4 4 11 1 9 12 12 16 19 20 18 19 22 16 12 12 11 10 9 10 9 10 10 9 12 14 10 8 10 10 10 12 13 13 11 11 11 10 12 10
5 3 2 4 3 0 2 8 4 2 5 5 3 5 17 16 18 17 18 15 14 12 18 12 11 9 8 11 13 10 11 13 12 13 14 11 10 9 8 7 12 13 10 9 10 10 11 11 9
5 7 3 5 5 1 5 7 2 2 4 6 4 3 22 21 21 19 18 17 15 14 12 13 13 9 12 9 11 12 13 14 15 13 14 11 8 9 8 11 10 11 10 8 8 9 11 12 12
12 3 8 8 8 7 5 3 5 7 8 10 11 15 19 21 20 21 19 17 18 15 13 14 12 12 12 10 13 15 14 15 16 15 17 13 12 10 8 9 10 10 9 7 6 9 11 12 6
3 8 7 11 5 2 7 7 7 8 1 12 14 17 19 18 17 16 16 16 17 15 19 16 14 13 14 11 14 12 13 12 14 18 20 12 8 9 6 7 7 6 7 4 4 7 9 4 3
2 7 9 5 4 2 4 3 6 3 4 6 13 16 17 16 17 16 14 13 9 16 17 13 14 13 12 11 17 11 13 16 14 19 17 10 9 9 9 7 7 7 4 5 3 2 2 4 7
5 5 3 4 2 3 5 3 5 6 2 8 13 15 15 14 14 14 19 17 17 17 17 15 18 14 14 15 13 15 14 13 14 14 12 10 10 9 10 9 7 6 5 3 2 3 3 1 5
9 4 0 1 1 3 6 7 8 13 7 10 13 15 14 14 14 13 11 12 14 14 15 17 17 14 17 15 16 18 15 18 13 15 13 15 9 10 8 8 6 5 4 4 2 1 1 4 2
2 9 5 7 1 3 5 9 11 14 11 9 13 14 15 15 15 13 11 11 11 11 12 10 11 14 16 17 16 19 14 18 16 16 14 18 12 11 8 8 7 6 3 4 4 2 3 2 1
8 9 4 9 0 4 5 1 9 13 17 17 17 16 16 17 16 14 12 11 11 11 12 10 11 15 13 17 19 20 18 19 16 13 8 11 14 10 13 8 7 6 3 4 3 6 7 4 3
10 7 7 3 4 5 4 3 10 14 16 16 15 16 18 17 16 14 13 12 11 12 12 11 11 13 15 17 20 20 17 13 15 13 11 12 13 8 9 9 8 8 4 3 9 5 7 5 4
5 7 2 4 5 3 8 7 9 12 15 17 20 20 19 21 20 19 15 13 12 12 12 13 12 13 14 18 21 18 17 16 16 13 9 11 11 10 13 10 7 7 5 4 6 2 1 5 6
11 7 10 6 6 6 7 7 5 14 15 16 21 29 24 24 22 20 18 16 14 13 13 14 14 15 12 16 17 17 14 11 15 13 10 10 8 10 15 9 11 8 6 5 2 3 4 5 4
9 14 12 3 3 6 9 11 10 11 16 19 21 22 26 19 23 22 20 20 17 16 15 15 16 17 17 14 17 17 17 17 14 11 10 9 11 12 11 13 9 9 7 9 5 6 7 6 5
15 15 13 8 11 13 12 17 12 14 15 17 21 23 25 24 28 29 27 22 20 19 19 18 18 18 19 16 17 16 16 16 15 15 13 13 13 12 15 13 14 11 12 8 7 7 8 12 2
17 13 8 8 12 11 8 7 11 12 12 15 19 23 24 29 30 28 28 26 23 21 20 20 19 19 20 20 17 17 16 16 15 15 13 13 13 12 13 16 17 18 10 12 7 8 9 9 8
15 13 5 10 13 15 17 8 6 7 10 14 19 21 26 28 32 30 29 27 24 23 23 22 21 20 21 22 19 18 16 15 13 14 15 15 13 13 14 15 16 19 18 12 14 6 9 8 8
15 15 10 14 13 13 15 12 3 6 7 4 3 16 23 29 29 30 30 28 26 25 25 24 24 23 22 23 24 20 17 16 15 16 18 13 15 13 16 14 14 17 18 18 13 11 11 10 8
16 14 11 12 12 10 7 2 9 13 6 6 1 6 14 26 30 31 33 31 29 29 28 27 26 25 23 23 23 22 20 21 16 16 19 17 15 14 17 17 15 13 16 16 18 16 13 9 9
14 18 12 11 9 9 6 5 5 2 5 9 9 6 12 21 29 31 33 33 31 30 30 29 28 26 25 24 23 22 22 18 19 17 17 17 20 21 20 16 16 14 13 15 15 14 12 11 10
15 16 17 19 15 13 14 9 7 9 10 11 10 8 13 18 26 31 33 33 32 32 31 31 32 29 26 25 24 22 20 20 20 21 18 18 17 15 20 18 16 16 15 15 15 15 15 14 12
19 11 12 11 13 15 13 12 7 7 3 7 5 8 12 14 20 29 32 34 34 32 30 29 28 28 27 27 25 25 22 22 22 19 22 19 19 21 19 15 17 16 16 17 18 15 15 16 15
14 16 15 15 10 11 12 6 10 7 3 2 6 2 13 11 17 25 29 31 32 31 31 29 28 26 27 27 27 27 25 22 21 22 21 25 22 20 22 22 11 18 19 18 21 18 16 15 15
19 19 18 13 16 13 8 11 1 7 4 2 4 4 5 10 14 21 28 30 31 30 31 29 28 27 27 26 26 23 27 25 23 23 23 25 26 24 23 23 26 27 23 20 23 19 17 17 17
Wind_Direction
5 17 304 262 253 181 126 89 120 97 86 76 60 37 102 59 18 102 139 147 133 135 140 138 137 135 137 140 146 146 146 134 127 121 110 105 101 102 106 106 108 106 102 100 100 97 94 91 89
261 307 274 273 248 185 69 69 73 66 79 87 72 40 70 74 72 124 142 150 140 136 134 138 137 137 137 134 135 135 140 136 130 124 118 110 104 98 99 101 104 103 102 104 102 101 95 89 81
284 280 271 273 89 219 117 94 89 95 107 115 114 22 29 85 111 134 151 146 149 147 154 158 136 138 132 131 140 149 146 143 136 137 128 115 106 107 101 106 108 107 108 108 104 95 88 80 78
302 243 246 263 290 64 184 101 109 108 85 47 347 97 97 80 131 139 149 150 154 146 160 154 147 145 142 146 148 154 156 154 153 154 142 128 117 111 109 110 111 115 112 106 99 93 87 89 78
304 256 269 250 145 72 43 63 115 157 75 87 324 91 84 105 129 145 154 152 149 160 160 160 153 146 156 164 163 155 141 132 155 160 158 147 138 128 116 118 118 123 113 106 99 92 90 84 83
275 305 299 256 211 151 131 206 118 136 78 106 98 112 80 130 146 148 153 153 158 153 151 161 159 160 163 163 158 140 131 130 145 166 152 154 143 133 124 126 128 124 115 111 101 94 86 80 81
309 246 341 331 121 3 46 238 159 292 80 73 107 74 116 144 148 151 153 146 153 160 160 160 162 170 169 156 157 155 152 138 120 136 138 142 154 137 135 131 135 130 125 116 104 90 83 78 73
275 315 43 51 52 156 258 261 35 313 63 98 330 137 140 154 152 149 155 158 151 161 171 160 162 153 138 159 152 138 139 129 127 131 133 147 152 144 130 127 141 138 134 120 102 92 82 71 58
250 330 25 83 125 201 200 218 328 287 160 45 65 38 133 151 154 154 154 155 160 152 165 164 163 147 161 162 168 155 147 136 131 143 141 146 131 111 114 155 155 146 136 119 102 89 74 68 45
269 283 32 21 132 217 135 270 187 268 172 115 102 111 136 150 159 161 166 169 167 175 170 171 163 170 153 153 162 152 144 142 137 146 137 133 157 156 169 164 156 146 133 117 93 70 61 46 26
339 15 7 37 23 224 190 174 190 235 145 140 135 137 145 155 162 173 172 174 174 175 167 169 170 167 144 171 148 152 136 142 153 158 151 142 156 176 142 147 137 137 137 80 50 26 27 33 51
238 54 12 33 86 106 164 159 202 252 204 89 141 150 153 163 160 179 183 185 173 166 169 176 176 170 172 180 147 167 165 162 177 160 146 152 155 155 167 147 161 162 156 162 173 109 85 56 26
32 78 16 42 108 170 131 250 347 159 171 151 147 156 163 168 156 172 172 174 187 195 198 182 183 183 172 184 170 157 172 148 171 153 159 166 167 165 159 171 150 157 164 106 85 86 59 348 72
24 17 269 197 121 187 210 251 235 159 160 163 159 166 170 170 167 156 164 163 170 173 174 190 196 187 189 176 173 165 168 166 167 170 177 174 173 168 173 160 164 155 164 147 149 224 102 336 98
118 260 202 188 296 315 248 215 222 174 171 188 178 175 168 171 160 163 164 167 173 173 167 173 201 188 189 183 177 168 174 152 183 165 172 169 147 170 170 159 167 166 169 151 125 174 113 187 110
235 241 248 120 278 140 247 173 206 173 185 189 203 184 178 176 172 170 169 173 172 176 179 184 188 191 190 183 183 179 180 180 174 157 166 172 163 180 157 182 174 193 147 172 208 243 207 132 180
180 264 42 141 159 289 225 147 181 178 198 209 205 200 192 186 181 180 176 177 175 179 180 182 184 194 188 177 181 177 185 184 178 160 157 180 185 181 166 184 198 197 175 211 237 246 7 121 206
173 303 209 334 111 212 272 244 178 186 212 211 192 199 197 199 196 184 192 183 180 185 181 175 178 198 190 177 181 176 181 192 187 166 186 175 183 185 162 194 210 194 201 224 263 62 319 350 311
329 294 280 274 88 278 260 265 252 182 206 218 188 193 207 202 197 189 193 190 189 189 187 182 174 181 180 169 173 183 191 192 203 199 199 198 194 199 200 197 225 199 212 250 206 247 261 243 290
272 264 257 212 185 255 270 274 242 203 206 211 208 212 200 205 197 191 198 198 196 194 192 186 180 182 175 181 174 183 190 196 219 196 217 216 209 214 206 197 222 229 224 253 240 245 271 262 269
251 261 271 312 312 268 245 256 229 208 205 206 213 212 212 202 211 194 200 196 197 193 195 191 187 186 178 183 183 191 195 201 199 204 208 217 215 221 205 220 205 227 212 242 252 256 251 269 203
259 236 255 294 274 287 238 288 195 204 188 203 212 213 213 196 222 200 196 196 199 196 198 194 190 191 187 184 187 192 191 201 206 210 208 209 212 213 223 224 226 232 231 230 251 248 237 276 284
257 271 292 284 278 267 254 227 126 202 196 202 199 208 214 209 202 205 199 200 202 194 196 195 191 195 192 193 186 196 194 203 206 207 205 200 232 218 217 234 240 235 234 231 227 236 256 239 258
256 274 237 251 254 262 251 239 258 190 202 136 182 201 202 208 206 201 197 196 198 192 192 192 192 197 195 202 192 195 203 196 198 197 201 214 220 231 214 223 233 233 237 229 233 226 241 229 230
215 225 232 230 226 252 114 300 299 297 258 265 319 234 204 200 203 200 201 195 192 190 188 189 192 193 197 203 204 206 200 191 206 199 214 212 218 219 223 213 222 234 247 230 227 225 220 234 239
219 229 246 252 276 312 149 250 251 329 224 217 214 237 189 197 196 200 199 198 193 193 192 189 192 193 197 201 206 209 211 208 203 216 210 228 243 212 221 231 220 224 242 207 224 235 239 247 256
203 219 255 281 281 269 269 252 307 242 211 236 214 160 191 198 196 197 195 197 195 193 194 192 198 197 196 199 206 207 214 205 212 215 232 228 226 238 215 226 218 221 223 226 222 228 237 241 246
241 251 229 229 259 261 256 263 234 154 306 6 309 167 189 192 199 193 196 196 195 194 195 195 199 197 199 199 208 212 211 216 213 216 219 222 223 231 257 215 213 220 226 232 229 229 240 242 240
203 245 252 278 297 301 283 301 76 148 181 292 329 160 170 192 196 195 192 191 194 194 194 196 198 199 207 205 212 214 217 219 221 220 221 218 222 228 242 246 216 225 224 230 240 225 226 244 243
239 215 224 238 236 248 284 286 71 168 205 32 329 147 150 184 192 197 188 187 188 191 192 195 200 203 206 209 219 220 222 212 221 223 224 228 232 229 229 235 229 230 231 226 245 240 239 240 245